Location: Brompton
(51.4000°N, 0.5333°E)
Time: 18:01:25
(UTC+00:00)

Cosmos 1536 - Pass Details

Date: 27 September 2021
Orbit: 539 x 557 km, 82.5° (Epoch: 28 October)

Event Time Altitude Azimuth Distance (km) Brightness Sun altitude
Rises 02:12:56 0° 6° (N) 2,715 7.1 -31.8°
Reaches altitude 10° 02:16:47 10° 44° (NE) 1,813 6.3 -31.4°
Maximum altitude 02:17:52 11° 60° (ENE) 1,753 6.2 -31.3°
Drops below altitude 10° 02:18:57 10° 76° (ENE) 1,809 6.1 -31.2°
Sets 02:22:46 0° 113° (ESE) 2,695 6.6 -30.7°
